Tracking 22455 objects as of 9-Mar-2021
HD Live streaming from Space Station
objects crossing your sky now

TITAN 3C TRANSTAGE R/B

Track TITAN 3C TRANSTAGE R/B now!
10-day predictions


NORAD ID: 1863
Int'l Code: 1965-108A
Perigee: 343.9 km
Apogee: 21,321.1 km
Inclination: 26.7 °
Period: 374.3 minutes
Semi major axis: 17203 km
RCS: 10.3335 m2 (large)
Launch date: December 21, 1965
Source: United States (US)
Launch site: AIR FORCE EASTERN TEST RANGE (AFETR)

Note: This is a ROCKET BODY
aabbcc
Your satellite tracking list
Your tracking list is empty




NASA's NSSDC Master Catalog

Two Line Element Set (TLE):
1 01863U 65108A   21065.41347831  .00000393  00000-0  23716-3 0  9990
2 01863  26.7478 163.9821 6096762 325.4654   6.9844  3.84749258292902
Source of the keplerian elements: AFSPC